{"data":{"norad_id":27056,"intl_designator":"2001-058B","name":"COSMOS 2385","alt_names":[],"object_type":"PAYLOAD","status":"ACTIVE","operator":null,"country":"CIS","launch_date":"2001-12-28","launch_site_code":"PLMSC","launch_vehicle":null,"mission":null,"orbit_class":"UNKNOWN","rcs_meters":0.8418,"size_class":null,"mass_kg":null,"dimensions":null,"purposes":[],"wikipedia_slug":null,"has_3d_model":false,"image_url":null,"decayed_at":null,"tle_current":{"epoch":"2026-05-25T04:47:31.133760Z","epoch_age_seconds":68539,"freshness":"FRESH","line1":"1 27056U 01058B   26145.19966590  .00000133  00000+0  69943-3 0  9997","line2":"2 27056  82.5375 234.5445 0004941 287.3722 148.2554 12.60564996122886","mean_motion":12.60564996,"eccentricity":0.0004941,"inclination_deg":82.5375,"raan_deg":234.5445,"arg_perigee_deg":287.3722,"mean_anomaly_deg":148.2554,"bstar":0.00069943,"rev_number":12288,"period_min":114.23449045225,"perigee_km":1416.7598862268,"apogee_km":1424.4666112226,"semimajor_km":7798.7502487247,"source":"CELESTRAK","updated_at":"2026-05-25T13:37:55.027363Z"}}}